TimeMST,TemperatureF,Dew PointF,Humidity,Sea Level PressureIn,VisibilityMPH,Wind Direction,Wind SpeedMPH,Gust SpeedMPH,PrecipitationIn,Events,Conditions,WindDirDegrees,DateUTC
12:53 AM,-18.0,-24.0,74,30.16,10.0,NNE,9.2,-,N/A,,Clear,30,2013-01-15 07:53:00
1:53 AM,-18.0,-24.0,74,30.20,10.0,NNE,8.1,-,N/A,,Clear,30,2013-01-15 08:53:00
2:53 AM,-18.0,-23.1,78,30.21,10.0,NE,4.6,-,N/A,,Clear,50,2013-01-15 09:53:00
3:53 AM,-18.0,-24.0,74,30.22,10.0,NE,8.1,-,N/A,,Clear,50,2013-01-15 10:53:00
4:53 AM,-16.1,-20.9,79,30.27,10.0,North,11.5,-,N/A,,Clear,10,2013-01-15 11:53:00
5:53 AM,-16.1,-22.0,74,30.31,10.0,North,11.5,-,N/A,,Partly Cloudy,350,2013-01-15 12:53:00
6:53 AM,-16.1,-20.9,79,30.34,10.0,North,11.5,-,N/A,,Clear,350,2013-01-15 13:53:00
7:53 AM,-11.0,-17.0,75,30.35,9.0,North,10.4,-,N/A,,Mostly Cloudy,360,2013-01-15 14:53:00
8:04 AM,-9.4,-16.6,71,29.94,9.0,North,11.5,-,N/A,,Overcast,360,2013-01-15 15:04:00
8:32 AM,-4.0,-11.2,71,29.95,10.0,North,10.4,19.6,N/A,,Overcast,360,2013-01-15 15:32:00
8:53 AM,-0.0,-9.9,63,30.32,10.0,NNE,17.3,26.5,N/A,,Overcast,20,2013-01-15 15:53:00
9:53 AM,3.0,-9.0,57,30.33,10.0,North,19.6,32.2,N/A,,Clear,10,2013-01-15 16:53:00
10:53 AM,6.1,-5.1,60,30.31,10.0,North,17.3,20.7,N/A,,Overcast,350,2013-01-15 17:53:00
11:53 AM,10.0,-2.0,58,30.26,10.0,NW,18.4,25.3,N/A,,Overcast,320,2013-01-15 18:53:00
12:53 PM,10.9,-0.9,59,30.27,10.0,NNW,17.3,25.3,N/A,,Overcast,340,2013-01-15 19:53:00
1:53 PM,10.0,-0.0,64,30.30,10.0,North,12.7,27.6,N/A,,Overcast,350,2013-01-15 20:53:00
2:53 PM,12.9,1.9,62,30.31,10.0,NNW,13.8,-,N/A,,Overcast,330,2013-01-15 21:53:00
3:25 PM,10.4,1.4,67,30.05,10.0,NW,13.8,20.7,N/A,,Overcast,320,2013-01-15 22:25:00
3:53 PM,9.0,1.9,73,30.38,10.0,NNW,11.5,19.6,N/A,,Overcast,330,2013-01-15 22:53:00
4:20 PM,8.6,1.4,73,30.07,10.0,NNW,11.5,20.7,N/A,,Overcast,340,2013-01-15 23:20:00
4:53 PM,8.1,1.0,73,30.38,10.0,NNW,9.2,16.1,N/A,,Overcast,330,2013-01-15 23:53:00
5:53 PM,7.0,1.0,77,30.41,9.0,North,4.6,-,0.00,Snow,Light Snow,350,2013-01-16 00:53:00
6:53 PM,8.1,1.9,76,30.42,10.0,NNE,4.6,-,0.00,,Overcast,30,2013-01-16 01:53:00
7:39 PM,10.4,3.2,73,30.12,10.0,Calm,Calm,-,0.00,,Overcast,0,2013-01-16 02:39:00
7:53 PM,10.0,3.9,76,30.39,10.0,North,5.8,-,0.00,,Overcast,350,2013-01-16 02:53:00
8:53 PM,10.0,3.0,73,30.32,10.0,NW,8.1,-,0.00,,Overcast,320,2013-01-16 03:53:00
9:26 PM,10.4,3.2,73,30.14,10.0,North,6.9,-,N/A,,Overcast,10,2013-01-16 04:26:00
9:53 PM,9.0,3.0,77,30.32,10.0,North,4.6,-,N/A,,Overcast,10,2013-01-16 04:53:00
10:34 PM,6.8,1.4,79,30.17,10.0,NNE,9.2,-,N/A,,Overcast,30,2013-01-16 05:34:00
10:53 PM,8.1,3.0,80,30.33,10.0,North,10.4,-,N/A,,Overcast,10,2013-01-16 05:53:00
11:53 PM,10.0,3.9,76,30.30,10.0,North,10.4,-,N/A,,Overcast,350,2013-01-16 06:53:00